Overview Statistics Trail Chart Weather Telemetry Raw packets
 

This is the latest recevied weather packets stored in our database for station/object K0QED. If no packets are shown the sender has not sent any weather packets the latest 10 day(s).

<< 70 71 72 73 74 75 76 >>
Time Temp. Humidity Pressure Rain* Wind** Luminosity Snow
1788125617 23.89° C 39% 1025.2 hPa 0 mm - 63 W/m² -
1788125312 23.89° C 39% 1025.1 hPa 0 mm - 60 W/m² -
1788125008 24.44° C 40% 1025.2 hPa 0 mm - 61 W/m² -
1788124707 25° C 39% 1025.1 hPa 0 mm - 90 W/m² -
1788124401 24.44° C 39% 1025.2 hPa 0 mm - 122 W/m² -
1788124097 25° C 38% 1025 hPa 0 mm - 134 W/m² -
1788123796 25° C 38% 1025 hPa 0 mm - 169 W/m² -
1788123495 25° C 38% 1025.1 hPa 0 mm - 197 W/m² -
1788123194 25° C 39% 1025 hPa 0 mm - 207 W/m² -
1788122890 25° C 39% 1025 hPa 0 mm - 219 W/m² -
1788122588 25.56° C 38% 1025.1 hPa 0 mm - 215 W/m² -
1788122284 25.56° C 39% 1025 hPa 0 mm - 289 W/m² -
1788121980 25° C 39% 1025 hPa 0 mm - 287 W/m² -
1788121679 25.56° C 39% 1025.1 hPa 0 mm - 255 W/m² -
1788121375 25° C 39% 1025.1 hPa 0 mm - 289 W/m² -
1788121075 25° C 38% 1025.1 hPa 0 mm - 270 W/m² -
1788120770 25.56° C 38% 1024.7 hPa 0 mm - 235 W/m² -
1788120465 25.56° C 38% 1025.1 hPa 0 mm - 253 W/m² -
1788120164 25° C 38% 1025.1 hPa 0 mm - 343 W/m² -
1788119860 25.56° C 37% 1025.2 hPa 0 mm - 276 W/m² -
1788119558 25.56° C 37% 1025.1 hPa 0 mm - 308 W/m² -
1788119257 26.11° C 37% 1025.5 hPa 0 mm - 392 W/m² -
1788118952 25° C 38% 1025.2 hPa 0 mm - 409 W/m² -
1788118646 25° C 38% 1025.2 hPa 0 mm - 385 W/m² -
1788118340 25.56° C 39% 1025.4 hPa 0 mm - 333 W/m² -

* Rain latest hour (hover to see other rain measurements)
** Current wind speed in m/s (hover to see current wind gust speed)